Location: Columbia
(38.9520°N, 92.3340°W)
Time: 07:58:35
(UTC-05:00)

CZ-2C R/B - Visible Passes

Search period start: 17 April 2014 00:00
Search period end: 27 April 2014 00:00
Orbit: 704 x 910 km, 98.1° (Epoch: 16 April)

Date Brightness Start Highest point End Pass type
(mag) Time Alt. Az. Time Alt. Az. Time Alt. Az.
17 Apr 5.7 03:32:29 10° E 03:35:07 15° ENE 03:37:45 10° NNE visible
17 Apr 2.9 05:09:55 10° S 05:14:33 54° W 05:19:13 10° NNW visible
18 Apr 2.8 04:45:20 10° SSE 04:50:04 83° ENE 04:54:51 10° N visible
19 Apr 3.8 04:21:10 10° SE 04:25:41 46° ENE 04:30:14 10° N visible
20 Apr 4.9 03:57:26 10° SE 04:01:22 27° ENE 04:05:21 10° NNE visible
20 Apr 3.7 05:37:08 10° SSW 05:41:12 28° W 05:45:18 10° NW visible
21 Apr 5.6 03:34:18 10° ESE 03:37:09 16° ENE 03:40:02 10° NNE visible
21 Apr 3.0 05:12:02 10° S 05:16:37 50° W 05:21:17 10° NNW visible
22 Apr 2.8 04:47:24 10° SSE 04:52:08 89° ENE 04:56:57 10° NNW visible
23 Apr 3.7 04:23:10 10° SSE 04:27:43 50° ENE 04:32:23 10° N visible
24 Apr 4.8 03:59:22 10° SE 04:03:25 29° ENE 04:07:33 10° N visible
24 Apr 3.8 05:39:20 10° SSW 05:43:17 26° W 05:47:20 10° NW visible
25 Apr 5.6 03:36:07 10° ESE 03:39:12 17° ENE 03:42:19 10° NNE visible
25 Apr 3.1 05:14:09 10° S 05:18:41 47° W 05:23:21 10° NNW visible
26 Apr 6.1 03:14:51 10° ENE 03:15:05 10° ENE 03:15:18 10° ENE visible
26 Apr 2.8 04:49:27 10° SSE 04:54:11 85° WSW 04:59:04 10° NNW visible
